{"data":{"norad_id":66128,"intl_designator":"2025-237Q","name":"STARLINK-35612","alt_names":[],"object_type":"PAYLOAD","status":"ACTIVE","operator":null,"country":"US","launch_date":"2025-10-22","launch_site_code":"AFWTR","launch_vehicle":null,"mission":null,"orbit_class":"UNKNOWN","rcs_meters":null,"size_class":null,"mass_kg":null,"dimensions":null,"purposes":["comms"],"wikipedia_slug":null,"has_3d_model":false,"image_url":null,"decayed_at":null,"tle_current":{"epoch":"2026-09-20T21:33:53.419680Z","epoch_age_seconds":66015,"freshness":"FRESH","line1":"1 66128U 25237Q   26263.89853495  .00008588  00000+0  26522-3 0  9990","line2":"2 66128  53.1551 211.7824 0001256  90.7364 269.3783 15.34375807 52517","mean_motion":15.34375807,"eccentricity":0.0001256,"inclination_deg":53.1551,"raan_deg":211.7824,"arg_perigee_deg":90.7364,"mean_anomaly_deg":269.3783,"bstar":0.00026522,"rev_number":5251,"period_min":93.849237809313,"perigee_km":461.91592928059,"apogee_km":463.63436641213,"semimajor_km":6840.9121478464,"source":"CELESTRAK","updated_at":"2026-09-21T09:00:35.809211Z"}}}